Weather History for Fort Myers Airport, FL

Change the Weather History Date:

Friday, February 22, 2013

  Actual Average Record
Temperature  
Mean Temperature 73 °F -  
Max Temperature 84 °F 78 °F 91 °F (1975)
Min Temperature 62 °F 57 °F 36 °F (1977)
Cooling Degree Days 8    
Growing Degree Days 23 (Base 50)    
Moisture  
Dew Point 64 °F    
Average Humidity 79    
Maximum Humidity 96    
Minimum Humidity 51    
Precipitation  
Precipitation 0.00 in - - ()
Sea Level Pressure  
Sea Level Pressure 30.04 in    
Wind  
Wind Speed 5 mph (SSE)    
Max Wind Speed 15 mph    
Max Gust Speed 21 mph    
Visibility 8 miles    
Events      
Averages and records for this station are not official NWS values.
T = Trace of Precipitation, MM = Missing Value Source: NWS Daily Summary

Daily Weather History Graph

Daily Weather History Graph

Search for Another Location

Airport:

Trip Planner

Search our weather history database for the weather conditions in past years. The results will help you decide how hot, cold, wet, or windy it might be!

Date:

Astronomy

Feb. 22, 2013 Rise Set
Actual Time 6:56 AM EST 6:24 PM EST
Civil Twilight 6:33 AM EST 6:47 PM EST
Nautical Twilight 6:06 AM EST 7:14 PM EST
Astronomical Twilight 5:39 AM EST 7:41 PM EST
Moon 3:44 PM EST (2/22) 4:29 AM EST (2/22)
Length of Visible Light 12h 14m
Length of Day
11h 27m
Waxing Gibbous, 90% of the Moon is Illuminated
Feb 22
Waxing Gibbous
Feb 25
Full
Mar 4
Last Quarter
Mar 11
New
Mar 19
First Quarter

Hourly Weather History & Observations

Time (EST) Temp. Heat Index Dew Point Humidity Pressure Visibility Wind Dir Wind Speed Gust Speed Precip Events Conditions
12:53 AM 66.0 °F - 62.1 °F 87% 30.04 in 10.0 mi SE 4.6 mph - N/A   Clear
1:53 AM 63.0 °F - 61.0 °F 93% 30.03 in 10.0 mi East 3.5 mph - N/A   Clear
2:53 AM 63.0 °F - 61.0 °F 93% 30.02 in 10.0 mi ESE 4.6 mph - N/A   Clear
3:53 AM 62.1 °F - 61.0 °F 96% 30.02 in 8.0 mi Calm Calm - N/A   Clear
4:53 AM 62.1 °F - 60.1 °F 93% 30.03 in 5.0 mi Calm Calm - N/A   Clear
5:21 AM 62.6 °F - 60.8 °F 94% 30.03 in 1.5 mi Calm Calm - N/A   Partly Cloudy
5:36 AM 62.6 °F - 60.8 °F 94% 30.04 in 3.0 mi Calm Calm - N/A   Partly Cloudy
5:40 AM 62.6 °F - 60.8 °F 94% 30.04 in 1.8 mi Calm Calm - N/A   Partly Cloudy
5:49 AM 62.6 °F - 60.8 °F 94% 30.05 in 4.0 mi Calm Calm - N/A   Partly Cloudy
5:53 AM 63.0 °F - 61.0 °F 93% 30.04 in 5.0 mi Calm Calm - N/A   Clear
6:10 AM 62.6 °F - 60.8 °F 94% 30.06 in 10.0 mi Calm Calm - N/A   Mostly Cloudy
6:19 AM 62.6 °F - 60.8 °F 94% 30.06 in 9.0 mi ENE 3.5 mph - N/A   Mostly Cloudy
6:53 AM 62.1 °F - 60.1 °F 93% 30.06 in 7.0 mi East 4.6 mph - N/A   Partly Cloudy
7:53 AM 64.9 °F - 63.0 °F 93% 30.07 in 6.0 mi SE 4.6 mph - N/A   Clear
8:53 AM 72.0 °F - 68.0 °F 87% 30.09 in 10.0 mi SE 10.4 mph - N/A   Clear
9:53 AM 75.9 °F - 68.0 °F 76% 30.08 in 10.0 mi SSE 15.0 mph - N/A   Partly Cloudy
10:53 AM 80.1 °F 82.3 °F 66.9 °F 64% 30.08 in 10.0 mi SSE 11.5 mph - N/A   Scattered Clouds
11:14 AM 80.6 °F 82.7 °F 66.2 °F 61% 30.08 in 10.0 mi SSE 12.7 mph 20.7 mph N/A   Mostly Cloudy
11:42 AM 80.6 °F 82.3 °F 64.4 °F 58% 30.07 in 10.0 mi South 12.7 mph - N/A   Scattered Clouds
11:53 AM 82.4 °F 83.9 °F 64.4 °F 54% 30.07 in 10.0 mi South 10.4 mph 18.4 mph N/A   Partly Cloudy
12:53 PM 82.9 °F 84.6 °F 64.9 °F 54% 30.04 in 10.0 mi South 9.2 mph - N/A   Partly Cloudy
1:53 PM 84.0 °F 85.4 °F 64.0 °F 51% 30.02 in 10.0 mi Variable 6.9 mph - N/A   Scattered Clouds
2:53 PM 84.0 °F 85.4 °F 64.0 °F 51% 30.01 in 10.0 mi WSW 10.4 mph 16.1 mph N/A   Partly Cloudy
3:53 PM 82.9 °F 85.0 °F 66.0 °F 56% 29.99 in 10.0 mi WSW 11.5 mph - N/A   Partly Cloudy
4:53 PM 80.1 °F 82.1 °F 66.0 °F 62% 30.00 in 10.0 mi SW 15.0 mph - N/A   Scattered Clouds
5:53 PM 78.1 °F - 66.0 °F 66% 30.01 in 10.0 mi SW 13.8 mph - N/A   Scattered Clouds
6:53 PM 75.0 °F - 66.9 °F 76% 30.02 in 10.0 mi SW 5.8 mph - N/A   Mostly Cloudy
7:53 PM 73.0 °F - 66.0 °F 79% 30.04 in 10.0 mi SW 4.6 mph - N/A   Clear
8:53 PM 73.9 °F - 66.0 °F 76% 30.05 in 10.0 mi South 4.6 mph - N/A   Scattered Clouds
9:53 PM 72.0 °F - 66.0 °F 81% 30.06 in 10.0 mi Calm Calm - N/A   Clear
10:53 PM 70.0 °F - 66.0 °F 87% 30.06 in 10.0 mi SSE 5.8 mph - N/A   Clear
11:53 PM 70.0 °F - 66.0 °F 87% 30.04 in 10.0 mi SE 5.8 mph - N/A   Partly Cloudy